Location: Frydek-Mistek
(49.6830°N, 18.3330°E)
Time: 04:53:54
(UTC+01:00)

ISS - Visible Passes

Search period start: 19 January 2019 00:00
Search period end: 29 January 2019 00:00
Orbit: 404 x 411 km, 51.6° (Epoch: 19 January)

Date Brightness Start Highest point End Pass type
(mag) Time Alt. Az. Time Alt. Az. Time Alt. Az.
23 Jan -1.9 18:39:16 10° SSW 18:40:56 22° S 18:40:56 22° S visible
24 Jan -2.0 17:48:33 10° S 17:50:58 19° SE 17:51:51 17° ESE visible
24 Jan -0.9 19:23:50 10° WSW 19:24:35 16° WSW 19:24:35 16° WSW visible
25 Jan -3.4 18:32:32 10° SW 18:35:26 51° S 18:35:26 51° S visible
26 Jan -2.9 17:41:23 10° SW 17:44:25 35° SSE 17:46:13 20° E visible
26 Jan -1.4 19:17:32 10° W 19:18:57 23° W 19:18:57 23° W visible
27 Jan -4.0 18:26:04 10° WSW 18:29:23 89° SSE 18:29:40 72° ENE visible
28 Jan -3.7 17:34:40 10° WSW 17:37:57 64° SSE 17:40:21 17° ENE visible
28 Jan -1.8 19:11:17 10° W 19:13:04 29° WNW 19:13:04 29° WNW visible
